Location: ????????
(60.4333°N, 46.4710°E)
Time: 19:20:30
(UTC+00:00)

NOSS 3-3 (A) - Pass Details

Date: 25 November 2020
Orbit: 819 x 1393 km, 63.4° (Epoch: 14 January)

Event Time Altitude Azimuth Distance (km) Brightness Sun altitude
Rises 14:39:27 0° 291° (WNW) 3,736 8.0 -17.9°
Reaches altitude 10° 14:41:54 10° 292° (WNW) 2,860 7.3 -18.2°
Maximum altitude 14:48:46 83° 22° (NNE) 1,174 4.3 -19.0°
Enters shadow 14:53:35 26° 109° (ESE) 2,226 5.3 -19.6°
